EW4696 Weather Reports


Display with metric or nautical units.
time (UTC)temp
F
wind
direction
speed
MPH
gust
MPH
rain 1hr
in
rain 24hr
in
rain mn
in
humidity
%
barometer
mb
20260509224005 88 119 1.0 3.0 0.00 0.00 0.00 51 1008.8
20260509223504 88 121 1.0 3.0 0.00 0.00 0.00 51 1008.8
20260509223005 88 122 1.0 3.0 0.00 0.00 0.00 50 1008.9
20260509222504 88 126 1.0 4.0 0.00 0.00 0.00 51 1009.0
20260509222004 88 135 1.0 4.0 0.00 0.00 0.00 50 1008.9
20260509221504 88 147 1.0 3.0 0.00 0.00 0.00 49 1008.8
20260509221005 88 146 1.0 3.0 0.00 0.00 0.00 50 1008.8
20260509220504 88 132 1.0 4.0 0.00 0.00 0.00 48 1008.9
20260509220004 88 117 1.0 5.0 0.00 0.00 0.00 48 1008.9
20260509215504 88 118 2.0 5.0 0.00 0.00 0.00 49 1008.9
20260509215004 88 126 2.0 4.0 0.00 0.00 0.00 48 1008.9
20260509214504 89 131 2.0 5.0 0.00 0.00 0.00 48 1008.9
20260509214004 89 108 1.0 5.0 0.00 0.00 0.00 50 1009.0
20260509213005 90 114 1.0 4.0 0.00 0.00 0.00 50 1009.1
20260509212504 90 118 1.0 5.0 0.00 0.00 0.00 49 1009.2
20260509211504 90 125 1.0 4.0 0.00 0.00 0.00 43 1009.2
20260509211005 89 113 1.0 6.0 0.00 0.00 0.00 41 1009.3
20260509210504 89 101 1.0 6.0 0.00 0.00 0.00 40 1009.5
20260509205504 89 94 1.0 3.0 0.00 0.00 0.00 45 1009.5
20260509205005 88 94 1.0 5.0 0.00 0.00 0.00 45 1009.6
20260509204504 88 94 1.0 5.0 0.00 0.00 0.00 47 1009.7
20260509204004 87 94 1.0 3.0 0.00 0.00 0.00 46 1009.7
20260509203504 87 90 1.0 3.0 0.00 0.00 0.00 48 1009.8
20260509203004 87 85 1.0 5.0 0.00 0.00 0.00 48 1009.9
20260509202504 86 97 1.0 5.0 0.00 0.00 0.00 50 1009.9
20260509202004 85 106 2.0 7.0 0.00 0.00 0.00 53 1010.1
20260509201505 84 105 2.0 7.0 0.00 0.00 0.00 51 1010.3
20260509201004 84 100 2.0 6.0 0.00 0.00 0.00 50 1010.5
20260509200504 84 97 2.0 6.0 0.00 0.00 0.00 48 1010.5
20260509200005 84 102 2.0 9.0 0.00 0.00 0.00 49 1010.6
20260509195504 84 107 2.0 9.0 0.00 0.00 0.00 53 1010.8
20260509194504 86 123 2.0 7.0 0.00 0.00 0.00 55 1010.6
20260509194005 88 75 1.0 7.0 0.00 0.00 0.00 55 1010.6
20260509193504 90 60 1.0 3.0 0.00 0.00 0.00 59 1010.4
20260509193004 89 66 1.0 3.0 0.00 0.00 0.00 61 1010.4
20260509192504 88 72 1.0 3.0 0.00 0.00 0.00 65 1010.3
20260509192004 88 0 0.0 3.0 0.00 0.00 0.00 64 1010.4
20260509191504 88 0 0.0 4.0 0.00 0.00 0.00 62 1010.4
20260509190504 89 74 1.0 5.0 0.00 0.00 0.00 61 1010.4
20260509190005 89 77 1.0 5.0 0.00 0.00 0.00 63 1010.4
20260509185504 88 82 1.0 5.0 0.00 0.00 0.00 62 1010.4
20260509185005 88 0 0.0 3.0 0.00 0.00 0.00 63 1010.6
20260509184004 88 86 1.0 2.0 0.00 0.00 0.00 63 1010.8
20260509183504 88 86 1.0 2.0 0.00 0.00 0.00 63 1011.0
20260509183005 88 86 1.0 2.0 0.00 0.00 0.00 63 1011.1
20260509182504 88 0 0.0 3.0 0.00 0.00 0.00 64 1011.1
20260509181504 88 102 1.0 5.0 0.00 0.00 0.00 65 1011.2
20260509181004 88 128 1.0 5.0 0.00 0.00 0.00 67 1011.2
20260509180504 88 184 1.0 3.0 0.00 0.00 0.00 68 1011.4
20260509174504 87 0 0.0 2.0 0.00 0.00 0.00 67 1011.4
20260509174004 87 0 0.0 2.0 0.00 0.00 0.00 69 1011.3
20260509173504 87 0 0.0 2.0 0.00 0.00 0.00 70 1011.4
20260509173004 87 161 1.0 3.0 0.00 0.00 0.00 71 1011.7
20260509172004 86 132 1.0 3.0 0.00 0.00 0.00 72 1012.0
20260509170504 85 0 0.0 2.0 0.00 0.00 0.00 73 1012.1
20260509170004 85 0 0.0 2.0 0.00 0.00 0.00 75 1012.2
20260509165004 85 139 1.0 4.0 0.00 0.00 0.00 76 1012.1
20260509164504 85 142 1.0 4.0 0.00 0.00 0.00 76 1012.0
20260509164004 84 144 1.0 3.0 0.00 0.00 0.00 77 1012.0
20260509163505 84 143 1.0 3.0 0.00 0.00 0.00 77 1012.1
20260509163004 84 140 1.0 3.0 0.00 0.00 0.00 78 1012.0
20260509162504 83 173 1.0 6.0 0.00 0.00 0.00 78 1012.1
20260509162004 83 240 1.0 6.0 0.00 0.00 0.00 79 1012.0
20260509161504 82 323 1.0 3.0 0.00 0.00 0.00 80 1011.9
20260509161004 81 281 1.0 4.0 0.00 0.00 0.00 82 1011.9
20260509160504 81 230 1.0 4.0 0.00 0.00 0.00 83 1011.9
20260509155504 80 186 2.0 8.0 0.00 0.00 0.00 84 1012.0
20260509155004 79 206 1.0 8.0 0.00 0.00 0.00 85 1012.0
20260509154504 78 231 1.0 4.0 0.00 0.00 0.00 86 1012.1
20260509154004 78 220 1.0 4.0 0.00 0.00 0.00 87 1012.1
20260509153504 77 222 1.0 6.0 0.00 0.00 0.00 86 1012.1
20260509152505 78 197 1.0 7.0 0.00 0.00 0.00 86 1011.9
20260509151004 78 202 1.0 3.0 0.00 0.00 0.00 86 1011.7
20260509150503 78 200 1.0 3.0 0.00 0.00 0.00 86 1011.7
20260509150004 78 189 1.0 4.0 0.00 0.00 0.00 87 1011.7
20260509145504 78 190 1.0 4.0 0.00 0.00 0.00 86 1011.7
20260509145004 79 190 1.0 5.0 0.00 0.00 0.00 86 1011.6
20260509144504 79 196 1.0 5.0 0.00 0.00 0.00 86 1011.6
20260509144004 78 198 1.0 4.0 0.00 0.00 0.00 87 1011.6
20260509143504 78 188 1.0 4.0 0.00 0.00 0.00 87 1011.5
20260509143004 78 194 1.0 8.0 0.00 0.00 0.00 87 1011.4
20260509142004 78 0 0.0 3.0 0.00 0.00 0.00 88 1011.2
20260509141504 77 209 1.0 3.0 0.00 0.00 0.00 88 1010.9
20260509141004 77 211 1.0 3.0 0.00 0.00 0.00 89 1010.8
20260509140005 76 222 1.0 3.0 0.00 0.00 0.00 89 1010.8
20260509135505 75 238 1.0 4.0 0.00 0.00 0.00 89 1010.7
20260509135004 74 239 1.0 5.0 0.00 0.00 0.00 88 1010.7
20260509134504 74 0 0.0 5.0 0.00 0.00 0.00 88 1010.9
20260509133503 73 0 0.0 2.0 0.00 0.00 0.00 88 1011.1
20260509132504 73 0 0.0 4.0 0.00 0.00 0.00 88 1011.2
20260509132004 72 0 0.0 4.0 0.00 0.00 0.00 88 1011.1
20260509131504 72 0 0.0 1.0 0.00 0.00 0.00 88 1011.1
20260509131004 72 0 0.0 1.0 0.00 0.00 0.00 88 1011.4
20260509130504 72 0 0.0 1.0 0.00 0.00 0.00 88 1011.6
20260509130004 72 0 0.0 1.0 0.00 0.00 0.00 88 1011.6
20260509125503 72 0 0.0 0.0 0.00 0.00 0.00 88 1011.6
20260509125004 71 0 0.0 0.0 0.00 0.00 0.00 88 1011.8
20260509124504 71 0 0.0 0.0 0.00 0.00 0.00 88 1011.7
20260509124004 71 0 0.0 0.0 0.00 0.00 0.00 88 1011.5
20260509123504 71 0 0.0 0.0 0.00 0.00 0.00 88 1011.5
20260509123004 71 0 0.0 0.0 0.00 0.00 0.00 88 1011.3
20260509122004 71 0 0.0 0.0 0.00 0.00 0.00 88 1011.2
20260509121504 71 0 0.0 0.0 0.00 0.00 0.00 88 1011.2
20260509121005 71 0 0.0 0.0 0.00 0.00 0.00 88 1011.4
20260509120504 71 0 0.0 0.0 0.00 0.00 0.00 88 1011.3
20260509115504 71 0 0.0 0.0 0.00 0.00 0.00 88 1011.2
20260509115004 71 0 0.0 0.0 0.00 0.00 0.00 88 1011.3
20260509114504 72 0 0.0 0.0 0.00 0.00 0.00 88 1011.5
20260509114004 72 0 0.0 0.0 0.00 0.00 0.00 88 1011.7
20260509113504 72 0 0.0 0.0 0.00 0.00 0.00 88 1012.1
20260509112504 72 0 0.0 0.0 0.00 0.00 0.00 88 1012.2
20260509112004 72 0 0.0 0.0 0.00 0.00 0.00 88 1012.4
20260509111504 72 0 0.0 0.0 0.00 0.00 0.00 88 1012.4
20260509111004 72 0 0.0 0.0 0.00 0.00 0.00 88 1012.4
20260509110504 72 0 0.0 0.0 0.00 0.00 0.00 88 1012.6
20260509105504 72 0 0.0 0.0 0.00 0.00 0.00 88 1012.5
20260509105004 72 0 0.0 0.0 0.00 0.00 0.00 88 1012.5
20260509103504 72 0 0.0 0.0 0.00 0.00 0.00 88 1012.6
20260509103004 72 0 0.0 0.0 0.00 0.00 0.00 88 1012.6
20260509102504 72 0 0.0 0.0 0.00 0.00 0.00 88 1012.6
20260509101004 72 0 0.0 0.0 0.00 0.00 0.00 88 1012.2
20260509100504 72 0 0.0 0.0 0.00 0.00 0.00 88 1012.0
20260509100005 72 0 0.0 0.0 0.00 0.00 0.00 88 1011.8
20260509094004 72 0 0.0 0.0 0.00 0.00 0.00 88 1011.1
20260509093504 72 0 0.0 0.0 0.00 0.00 0.00 88 1011.2
20260509093004 72 0 0.0 0.0 0.00 0.00 0.00 88 1010.9
20260509092504 72 0 0.0 0.0 0.00 0.00 0.00 88 1010.9
20260509092004 72 0 0.0 0.0 0.00 0.00 0.00 88 1010.9
20260509091504 72 0 0.0 0.0 0.00 0.00 0.00 88 1010.9
20260509091004 72 0 0.0 0.0 0.00 0.00 0.00 88 1010.9
20260509090504 72 0 0.0 0.0 0.00 0.00 0.00 88 1010.9
20260509090004 72 0 0.0 2.0 0.00 0.00 0.00 88 1010.9
20260509085504 72 0 0.0 2.0 0.00 0.00 0.00 88 1011.0
20260509085004 72 0 0.0 0.0 0.00 0.00 0.00 88 1011.0
20260509084504 72 0 0.0 0.0 0.00 0.00 0.00 88 1011.0
20260509084003 72 0 0.0 0.0 0.00 0.00 0.00 88 1011.2
20260509083504 72 0 0.0 0.0 0.00 0.00 0.00 88 1011.3
20260509083004 72 0 0.0 0.0 0.00 0.00 0.00 88 1011.3
20260509082004 72 0 0.0 0.0 0.00 0.00 0.00 88 1011.4
20260509081504 72 0 0.0 0.0 0.00 0.00 0.00 88 1011.3
20260509081004 72 0 0.0 0.0 0.00 0.00 0.00 88 1011.3
20260509080504 72 0 0.0 0.0 0.00 0.00 0.00 88 1011.4
20260509080004 72 0 0.0 0.0 0.00 0.00 0.00 88 1011.4
20260509075504 72 0 0.0 0.0 0.00 0.00 0.00 88 1011.6
20260509075004 72 0 0.0 0.0 0.00 0.00 0.00 88 1011.6
20260509074504 72 0 0.0 0.0 0.00 0.00 0.00 88 1011.5
20260509074004 72 0 0.0 0.0 0.00 0.00 0.00 88 1011.4
20260509073504 73 0 0.0 0.0 0.00 0.00 0.00 89 1011.5
20260509073004 73 0 0.0 0.0 0.00 0.00 0.00 89 1011.7
20260509072504 73 0 0.0 1.0 0.00 0.00 0.00 89 1011.7
20260509072004 73 0 0.0 1.0 0.00 0.00 0.00 89 1011.7
20260509071004 73 0 0.0 0.0 0.00 0.00 0.00 89 1011.9
20260509070504 73 0 0.0 0.0 0.00 0.00 0.00 89 1011.9
20260509070004 73 0 0.0 0.0 0.00 0.00 0.00 89 1011.9
20260509065004 73 0 0.0 1.0 0.00 0.00 0.00 89 1011.6
20260509064504 73 0 0.0 1.0 0.00 0.00 0.00 89 1011.4
20260509064004 73 0 0.0 1.0 0.00 0.00 0.00 89 1011.5
20260509063504 73 0 0.0 2.0 0.00 0.00 0.00 89 1011.5
20260509063004 73 0 0.0 2.0 0.00 0.00 0.00 89 1011.6
20260509062504 73 0 0.0 1.0 0.00 0.00 0.00 89 1011.7
20260509062003 73 0 0.0 2.0 0.00 0.00 0.00 89 1011.5
20260509061504 73 0 0.0 2.0 0.00 0.00 0.00 89 1011.4
20260509061004 73 0 0.0 4.0 0.00 0.00 0.00 89 1011.2
20260509060504 73 0 0.0 4.0 0.00 0.00 0.00 89 1011.0
20260509060004 73 0 0.0 4.0 0.00 0.00 0.00 89 1011.0
20260509055004 73 0 0.0 3.0 0.00 0.00 0.00 89 1011.2
20260509054504 73 0 0.0 4.0 0.00 0.00 0.00 89 1011.2
20260509053504 73 177 1.0 5.0 0.00 0.00 0.00 89 1010.7
20260509053004 73 159 1.0 6.0 0.00 0.00 0.00 89 1010.4
20260509052503 73 164 1.0 6.0 0.00 0.00 0.00 89 1010.3
20260509052004 73 0 0.0 3.0 0.00 0.00 0.00 89 1010.4
20260509051504 73 0 0.0 6.0 0.00 0.00 0.00 89 1010.3
20260509051004 73 0 0.0 6.0 0.00 0.00 0.00 89 1010.2
20260509045004 73 0 0.0 2.0 0.00 0.00 0.00 89 1010.3
20260509044504 73 0 0.0 2.0 0.00 0.00 0.00 89 1010.3
20260509043504 73 0 0.0 0.0 0.00 0.00 0.00 89 1010.6
20260509043005 73 0 0.0 1.0 0.00 0.00 0.00 89 1010.6
20260509042504 73 0 0.0 3.0 0.00 0.00 0.00 89 1010.6
20260509042004 73 0 0.0 3.0 0.00 0.00 0.00 89 1010.8
20260509041504 73 0 0.0 1.0 0.00 0.00 0.00 89 1010.9
20260509040504 73 0 0.0 2.0 0.00 0.00 0.00 89 1010.9
20260509040004 73 0 0.0 2.0 0.00 0.00 0.00 89 1010.9
20260509035504 73 0 0.0 3.0 0.00 0.00 0.00 89 1010.8
20260509035004 73 0 0.0 6.0 0.00 0.00 0.00 89 1010.7
20260509034504 73 0 0.0 6.0 0.00 0.00 0.00 89 1010.6
20260509034004 73 0 0.0 2.0 0.00 0.00 0.00 89 1010.6
20260509033504 73 0 0.0 2.0 0.00 0.00 0.00 89 1010.5
20260509033004 72 0 0.0 0.0 0.00 0.00 0.00 89 1010.5
20260509032503 72 0 0.0 0.0 0.00 0.00 0.00 89 1010.5
20260509032004 72 0 0.0 0.0 0.00 0.00 0.00 89 1010.5
20260509030004 73 0 0.0 0.0 0.00 0.00 0.00 88 1010.5
20260509025504 73 0 0.0 1.0 0.00 0.00 0.00 88 1010.5
20260509025004 73 0 0.0 1.0 0.00 0.00 0.00 88 1010.4
20260509024503 74 0 0.0 1.0 0.00 0.00 0.00 88 1010.3
20260509024004 74 0 0.0 1.0 0.00 0.00 0.00 88 1010.2
20260509023504 74 0 0.0 1.0 0.00 0.00 0.00 87 1010.2
20260509023004 74 0 0.0 2.0 0.00 0.00 0.00 87 1010.1
20260509022503 74 0 0.0 2.0 0.00 0.00 0.00 87 1010.0
20260509022004 74 0 0.0 1.0 0.00 0.00 0.00 87 1010.1
20260509021504 74 0 0.0 2.0 0.00 0.00 0.00 87 1010.0
20260509020503 75 0 0.0 2.0 0.00 0.00 0.00 87 1009.7
20260509020004 75 0 0.0 2.0 0.00 0.00 0.00 86 1009.6
20260509015504 75 0 0.0 3.0 0.00 0.00 0.00 86 1009.6
20260509015004 75 0 0.0 4.0 0.00 0.00 0.00 86 1009.6
20260509014504 75 0 0.0 4.0 0.00 0.00 0.00 86 1009.5
20260509014004 76 134 1.0 4.0 0.00 0.00 0.00 86 1009.5
20260509013504 76 0 0.0 2.0 0.00 0.00 0.00 85 1009.4
20260509013003 76 0 0.0 2.0 0.00 0.00 0.00 85 1009.3
20260509012504 76 0 0.0 2.0 0.00 0.00 0.00 85 1009.4
20260509012004 76 0 0.0 3.0 0.00 0.00 0.00 85 1009.4
20260509011504 76 0 0.0 3.0 0.00 0.00 0.00 84 1009.4
20260509011004 77 0 0.0 3.0 0.00 0.00 0.00 84 1009.5
20260509010504 77 0 0.0 3.0 0.00 0.00 0.00 84 1009.4
20260509005504 77 0 0.0 2.0 0.00 0.00 0.00 83 1009.4
20260509005003 77 0 0.0 2.0 0.00 0.00 0.00 82 1009.4
20260509004004 77 0 0.0 2.0 0.00 0.00 0.00 82 1009.3
20260509003504 77 0 0.0 2.0 0.00 0.00 0.00 81 1009.4
20260509003004 77 0 0.0 3.0 0.00 0.00 0.00 81 1009.4
20260509002504 77 0 0.0 3.0 0.00 0.00 0.00 81 1009.4
20260509000504 78 0 0.0 1.0 0.00 0.00 0.00 81 1009.5
20260509000004 78 0 0.0 1.0 0.00 0.00 0.00 81 1009.4
20260508235504 78 0 0.0 1.0 0.00 0.00 0.00 80 1009.4
20260508235004 78 0 0.0 1.0 0.00 0.00 0.00 80 1009.5
20260508234504 78 0 0.0 1.0 0.00 0.00 0.00 80 1009.5
20260508234004 78 0 0.0 2.0 0.00 0.00 0.00 80 1009.4
20260508233004 78 0 0.0 3.0 0.00 0.00 0.00 80 1009.5
20260508232504 78 131 1.0 3.0 0.00 0.00 0.00 79 1009.4
20260508232004 78 0 0.0 3.0 0.00 0.00 0.00 79 1009.4
20260508231504 78 0 0.0 3.0 0.00 0.00 0.00 79 1009.5
20260508231003 79 0 0.0 3.0 0.00 0.00 0.00 79 1009.5
20260508230004 79 138 1.0 4.0 0.00 0.00 0.00 78 1009.4
20260508224504 79 0 0.0 2.0 0.00 0.00 0.00 77 1009.5